W5ITZ Weather Reports


time (UTC)temp
F
wind
direction
speed
knots
gust
knots
rain 1hr
in
rain 24hr
in
rain mn
in
humidity
%
barometer
mb
20260510153237 84 76 0.9 0.9 0.00 0.00 0.00 74 1014.0
20260510152734 83 80 0.9 2.6 0.00 0.00 0.00 78 1014.1
20260510152230 83 94 1.7 2.6 0.00 0.00 0.00 76 1014.0
20260510151726 82 65 1.7 2.6 0.00 0.00 0.00 78 1014.3
20260510151225 82 136 2.6 2.6 0.00 0.00 0.00 79 1014.2
20260510150721 80 143 2.6 1.7 0.00 0.00 0.00 82 1014.3
20260510150216 80 121 4.3 5.2 0.00 0.00 0.00 81 1014.1
20260510145713 80 94 1.7 1.7 0.00 0.00 0.00 84 1014.1
20260510145209 80 161 2.6 2.6 0.00 0.00 0.00 84 1014.1
20260510144705 79 120 4.3 5.2 0.00 0.00 0.00 84 1014.0
20260510144202 79 121 3.5 4.3 0.00 0.00 0.00 87 1014.0
20260510143657 78 122 3.5 4.3 0.00 0.00 0.00 89 1013.8
20260510143154 78 127 4.3 5.2 0.00 0.00 0.00 90 1013.8
20260510142650 78 173 4.3 4.3 0.00 0.00 0.00 91 1013.5
20260510142147 78 125 3.5 4.3 0.00 0.00 0.00 93 1013.8
20260510141644 78 156 4.3 4.3 0.00 0.00 0.00 94 1013.6
20260510141142 77 135 3.5 4.3 0.00 0.00 0.00 95 1013.5
20260510140638 77 133 5.2 6.1 0.00 0.00 0.00 96 1013.4
20260510140137 77 122 5.2 5.2 0.00 0.00 0.00 96 1013.1
20260510135633 76 121 4.3 5.2 0.00 0.00 0.00 97 1013.1
20260510135129 76 160 4.3 5.2 0.00 0.00 0.00 98 1012.8
20260510134626 76 133 4.3 5.2 0.00 0.00 0.00 98 1012.9
20260510134123 76 118 5.2 6.1 0.00 0.00 0.00 98 1013.0
20260510133620 76 157 6.1 6.1 0.00 0.00 0.00 98 1012.8
20260510133115 76 127 4.3 5.2 0.00 0.00 0.00 98 1012.8
20260510132612 76 142 3.5 4.3 0.00 0.00 0.00 98 1012.7
20260510132109 75 123 2.6 2.6 0.00 0.00 0.00 98 1012.6
20260510131607 75 150 2.6 2.6 0.00 0.00 0.00 98 1012.3
20260510131104 75 122 3.5 4.3 0.00 0.00 0.00 98 1012.5
20260510130600 74 129 3.5 4.3 0.00 0.00 0.00 98 1012.2
20260510130058 74 137 3.5 4.3 0.00 0.00 0.00 98 1012.1
20260510125554 74 128 3.5 4.3 0.00 0.00 0.00 98 1012.1
20260510125050 74 141 1.7 1.7 0.00 0.00 0.00 98 1011.9
20260510124547 73 111 1.7 1.7 0.00 0.00 0.00 98 1012.2
20260510124044 73 124 1.7 1.7 0.00 0.00 0.00 98 1012.1
20260510123539 73 114 2.6 1.7 0.00 0.00 0.00 98 1012.1
20260510123035 72 136 1.7 1.7 0.00 0.00 0.00 98 1012.0
20260510122531 72 105 1.7 1.7 0.00 0.00 0.00 98 1011.8
20260510122028 72 102 1.7 1.7 0.00 0.00 0.00 98 1012.2
20260510121525 72 143 2.6 2.6 0.00 0.00 0.00 98 1011.9
20260510121022 72 133 2.6 2.6 0.00 0.00 0.00 98 1011.8
20260510120519 72 119 2.6 1.7 0.00 0.00 0.00 98 1011.5
20260510120015 71 132 1.7 1.7 0.00 0.00 0.00 98 1011.4
20260510115512 71 93 0.9 0.9 0.00 0.00 0.00 98 1011.7
20260510115009 71 112 1.7 1.7 0.00 0.00 0.00 97 1011.7
20260510114505 71 104 1.7 0.9 0.00 0.00 0.00 97 1011.5
20260510114001 71 4 0.0 0.0 0.00 0.00 0.00 97 1011.3
20260510113456 71 4 0.0 0.0 0.00 0.00 0.00 97 1011.3
20260510112954 71 354 0.0 0.0 0.00 0.00 0.00 97 1011.1
20260510112451 71 349 0.9 0.9 0.00 0.00 0.00 97 1011.3
20260510111947 71 349 0.0 0.0 0.00 0.00 0.00 97 1011.3
20260510111443 71 349 0.0 0.0 0.00 0.00 0.00 97 1011.0
20260510110940 71 349 0.9 0.9 0.00 0.00 0.00 97 1011.2
20260510110436 71 349 0.9 0.9 0.00 0.00 0.00 97 1011.3
20260510105932 70 347 0.0 0.0 0.00 0.00 0.00 97 1011.2
20260510105427 70 347 0.0 0.0 0.00 0.00 0.00 97 1011.0
20260510104922 70 347 0.0 0.0 0.00 0.00 0.00 97 1011.2
20260510104420 70 347 0.0 0.0 0.00 0.00 0.00 97 1011.1
20260510103916 70 347 0.0 0.0 0.00 0.00 0.00 97 1011.3
20260510103414 69 347 0.0 0.0 0.00 0.00 0.00 97 1011.1
20260510102908 69 347 0.9 0.9 0.00 0.00 0.00 97 1011.2
20260510102404 69 350 0.9 0.9 0.00 0.00 0.00 97 1011.4
20260510101902 69 7 0.9 0.9 0.00 0.00 0.00 97 1011.2
20260510101400 68 43 0.9 0.9 0.00 0.00 0.00 97 1011.2
20260510100856 68 43 0.0 0.0 0.00 0.00 0.00 97 1011.3
20260510100354 68 23 0.9 0.9 0.00 0.00 0.00 97 1011.0
20260510095850 68 36 0.0 0.0 0.00 0.00 0.00 97 1010.9
20260510095345 68 26 0.0 0.9 0.00 0.00 0.00 97 1010.8
20260510094844 68 29 0.9 0.9 0.00 0.00 0.00 97 1011.0
20260510094340 68 39 2.6 1.7 0.00 0.00 0.00 96 1011.1
20260510093837 68 19 2.6 2.6 0.00 0.00 0.00 96 1010.9
20260510093332 68 11 0.9 0.9 0.00 0.00 0.00 96 1010.8
20260510092829 68 11 0.0 0.0 0.00 0.00 0.00 96 1010.9
20260510092324 68 11 0.0 0.0 0.00 0.00 0.00 96 1010.9
20260510091821 68 12 0.9 0.9 0.00 0.00 0.00 96 1010.9
20260510091318 69 20 0.9 0.9 0.00 0.00 0.00 96 1010.9
20260510090814 69 19 0.9 0.9 0.00 0.00 0.00 96 1010.9
20260510090311 70 116 0.9 0.9 0.00 0.00 0.00 96 1010.8
20260510085807 70 116 1.7 1.7 0.00 0.00 0.00 96 1010.9
20260510085301 70 116 1.7 1.7 0.00 0.00 0.00 96 1010.8
20260510084757 70 112 1.7 1.7 0.00 0.00 0.00 96 1010.8
20260510084254 70 134 1.7 1.7 0.00 0.00 0.00 95 1011.0
20260510083751 70 134 1.7 1.7 0.00 0.00 0.00 96 1011.1
20260510083248 70 133 0.9 0.9 0.00 0.00 0.00 96 1011.1
20260510082743 69 134 0.9 0.9 0.00 0.00 0.00 95 1011.1
20260510082240 70 135 1.7 1.7 0.00 0.00 0.00 95 1010.9
20260510081739 69 134 1.7 1.7 0.00 0.00 0.00 95 1011.0
20260510081236 70 133 1.7 0.9 0.00 0.00 0.00 95 1011.1
20260510080731 70 129 1.7 1.7 0.00 0.00 0.00 95 1011.0
20260510080227 70 120 2.6 2.6 0.00 0.00 0.00 95 1011.0
20260510075723 70 135 1.7 1.7 0.00 0.00 0.00 95 1010.9
20260510075221 70 135 1.7 0.9 0.00 0.00 0.00 95 1010.9
20260510074718 71 123 1.7 1.7 0.00 0.00 0.00 95 1011.0
20260510074215 70 123 1.7 1.7 0.00 0.00 0.00 95 1011.1
20260510073711 70 152 1.7 1.7 0.00 0.00 0.00 95 1011.2
20260510073207 71 163 2.6 1.7 0.00 0.00 0.00 94 1010.9
20260510072703 71 153 2.6 2.6 0.00 0.00 0.00 94 1011.1
20260510072200 71 129 1.7 1.7 0.00 0.00 0.00 94 1011.3
20260510071656 71 114 1.7 1.7 0.00 0.00 0.00 94 1011.1
20260510071153 71 182 1.7 1.7 0.00 0.00 0.00 94 1010.9
20260510070651 71 183 0.9 0.9 0.00 0.00 0.00 94 1011.1
20260510070148 71 195 1.7 1.7 0.00 0.00 0.00 94 1011.3
20260510065643 71 195 1.7 1.7 0.00 0.00 0.00 94 1011.0
20260510065139 71 197 1.7 1.7 0.00 0.00 0.00 94 1010.9
20260510064636 71 184 1.7 1.7 0.00 0.00 0.00 93 1011.3
20260510064133 71 169 2.6 2.6 0.00 0.00 0.00 93 1011.1
20260510063630 71 168 2.6 1.7 0.00 0.00 0.00 93 1011.1
20260510063127 71 141 1.7 0.9 0.00 0.00 0.00 93 1011.1
20260510062622 71 122 2.6 1.7 0.00 0.00 0.00 93 1011.6
20260510062118 72 139 2.6 2.6 0.00 0.00 0.00 93 1011.2
20260510061614 72 116 1.7 1.7 0.00 0.00 0.00 93 1011.7
20260510061112 72 105 1.7 1.7 0.00 0.00 0.00 93 1011.6
20260510060608 72 109 1.7 1.7 0.00 0.00 0.00 92 1011.8
20260510060105 72 123 2.6 2.6 0.00 0.00 0.00 92 1011.6
20260510055600 72 109 2.6 2.6 0.00 0.00 0.00 92 1011.9
20260510055059 72 105 2.6 4.3 0.00 0.00 0.00 92 1011.9
20260510054554 72 114 2.6 2.6 0.00 0.00 0.00 91 1011.9
20260510054050 72 112 2.6 2.6 0.00 0.00 0.00 91 1012.1
20260510053549 72 90 2.6 1.7 0.00 0.00 0.00 90 1011.9
20260510053047 72 97 3.5 4.3 0.00 0.00 0.00 90 1011.8
20260510052542 71 111 3.5 4.3 0.00 0.00 0.00 89 1011.7
20260510052039 71 84 4.3 4.3 0.00 0.00 0.00 88 1011.5
20260510051534 71 101 3.5 2.6 0.00 0.00 0.00 87 1011.9
20260510051031 71 93 2.6 2.6 0.00 0.00 0.00 86 1011.6
20260510050529 72 123 3.5 4.3 0.00 0.00 0.00 86 1011.5
20260510050026 72 102 1.7 1.7 0.00 0.01 0.01 86 1011.5
20260510045523 72 78 1.7 0.9 0.00 0.01 0.01 85 1011.3
20260510045018 72 121 1.7 1.7 0.00 0.01 0.01 86 1011.4
20260510044516 72 101 1.7 1.7 0.00 0.01 0.01 86 1011.1
20260510044013 72 167 2.6 1.7 0.00 0.01 0.01 85 1011.1
20260510043508 72 142 2.6 2.6 0.00 0.01 0.01 85 1011.3
20260510043003 72 111 3.5 4.3 0.00 0.01 0.01 84 1011.0
20260510042458 72 119 3.5 5.2 0.00 0.01 0.01 84 1011.2
20260510041953 72 98 2.6 4.3 0.00 0.01 0.01 84 1011.1
20260510041450 72 123 3.5 5.2 0.00 0.01 0.01 84 1011.5
20260510040948 72 136 3.5 2.6 0.00 0.01 0.01 83 1011.4
20260510040444 74 113 3.5 4.3 0.00 0.01 0.01 79 1011.3
20260510035940 74 94 1.7 1.7 0.00 0.01 0.01 78 1011.0
20260510035437 74 99 2.6 2.6 0.00 0.01 0.01 78 1010.7
20260510034936 74 136 3.5 4.3 0.00 0.01 0.01 79 1010.4
20260510034436 73 145 2.6 4.3 0.00 0.01 0.01 79 1010.4
20260510033931 74 194 4.3 4.3 0.00 0.01 0.01 78 1010.3
20260510033428 74 207 4.3 5.2 0.00 0.01 0.01 78 1009.8
20260510032925 74 214 3.5 2.6 0.00 0.01 0.01 77 1010.0
20260510032422 75 215 1.7 1.7 0.00 0.01 0.01 76 1010.0
20260510031917 75 217 3.5 4.3 0.00 0.01 0.01 77 1010.2
20260510031412 74 221 3.5 4.3 0.00 0.01 0.01 77 1009.9
20260510030907 75 214 2.6 1.7 0.00 0.01 0.01 76 1010.0
20260510030403 75 209 3.5 2.6 0.00 0.01 0.01 76 1010.0
20260510025901 75 184 2.6 2.6 0.00 0.01 0.01 76 1010.0
20260510025359 75 170 2.6 2.6 0.00 0.01 0.01 75 1009.9
20260510024856 75 178 2.6 2.6 0.00 0.01 0.01 75 1009.7
20260510024352 75 154 2.6 1.7 0.00 0.01 0.01 75 1009.8
20260510023848 76 150 2.6 2.6 0.00 0.01 0.01 74 1009.7
20260510023344 76 140 3.5 4.3 0.00 0.01 0.01 74 1009.7
20260510022842 76 136 4.3 5.2 0.00 0.01 0.01 74 1009.9
20260510022341 77 142 3.5 2.6 0.00 0.01 0.01 73 1009.6
20260510021840 77 156 3.5 4.3 0.00 0.01 0.01 72 1009.6
20260510021339 77 179 3.5 2.6 0.00 0.01 0.01 72 1009.4
20260510020834 78 187 2.6 2.6 0.00 0.01 0.01 71 1009.6
20260510020329 78 195 3.5 2.6 0.00 0.01 0.01 71 1009.5
20260510015825 78 147 2.6 2.6 0.00 0.01 0.01 72 1009.2
20260510015321 79 125 2.6 4.3 0.00 0.01 0.01 71 1009.5
20260510014816 79 85 1.7 4.3 0.00 0.01 0.01 71 1009.3
20260510014314 79 106 1.7 1.7 0.00 0.01 0.01 71 1009.2
20260510013810 79 154 3.5 4.3 0.00 0.01 0.01 71 1008.9
20260510013305 79 198 4.3 4.3 0.00 0.01 0.01 71 1008.4
20260510012801 80 179 2.6 2.6 0.00 0.01 0.01 71 1008.5
20260510012255 80 217 5.2 6.1 0.00 0.01 0.01 69 1008.2
20260510011755 80 192 5.2 6.1 0.00 0.01 0.01 68 1008.0
20260510011251 81 186 5.2 7.0 0.00 0.01 0.01 67 1008.1
20260510010748 81 191 6.1 7.0 0.00 0.01 0.01 65 1008.1
20260510010244 81 207 6.1 7.0 0.00 0.01 0.01 65 1008.2
20260510005742 82 194 5.2 6.1 0.00 0.01 0.01 64 1008.4
20260510005237 83 199 6.1 7.0 0.00 0.01 0.01 62 1008.4
20260510004736 83 180 6.1 7.0 0.00 0.01 0.01 62 1008.3
20260510004233 84 194 5.2 6.1 0.00 0.01 0.01 61 1008.4
20260510003731 85 180 4.3 6.1 0.00 0.01 0.01 61 1008.5
20260510003227 85 203 3.5 2.6 0.00 0.01 0.01 59 1008.6
20260510002725 86 209 3.5 4.3 0.00 0.01 0.01 57 1008.6
20260510002223 86 195 4.3 4.3 0.00 0.01 0.01 57 1008.4
20260510001720 87 191 4.3 5.2 0.00 0.01 0.01 57 1008.3
20260510001218 87 196 4.3 5.2 0.00 0.01 0.01 57 1008.3
20260510000714 87 174 6.1 6.1 0.00 0.01 0.01 56 1008.4
20260510000211 87 183 3.5 4.3 0.00 0.01 0.01 56 1008.3
20260509235708 87 164 5.2 6.1 0.00 0.01 0.01 54 1008.4
20260509235204 87 181 6.1 7.0 0.00 0.01 0.01 54 1008.4
20260509234701 87 184 6.1 6.1 0.00 0.01 0.01 55 1008.4
20260509234158 88 166 7.0 7.8 0.00 0.01 0.01 54 1008.3
20260509233656 88 174 5.2 6.1 0.00 0.01 0.01 54 1008.5
20260509233153 88 173 7.0 7.0 0.00 0.01 0.01 53 1008.4
20260509232649 88 144 6.1 7.0 0.00 0.01 0.01 53 1008.2
20260509232146 88 162 7.8 8.7 0.00 0.01 0.01 53 1008.3
20260509231643 88 151 7.0 7.8 0.00 0.01 0.01 53 1008.3
20260509231140 88 158 7.0 7.8 0.00 0.01 0.01 53 1008.1
20260509230637 89 150 8.7 9.6 0.00 0.01 0.01 52 1008.1
20260509230134 89 143 7.8 7.8 0.00 0.01 0.01 52 1007.8
20260509225630 91 167 7.8 7.8 0.00 0.01 0.01 50 1008.2
20260509225125 91 197 4.3 5.2 0.00 0.01 0.01 48 1008.1
20260509224620 91 178 5.2 6.1 0.00 0.01 0.01 49 1008.1
20260509224118 90 221 3.5 2.6 0.00 0.01 0.01 50 1007.9
20260509223615 90 153 3.5 4.3 0.00 0.01 0.01 50 1007.9
20260509223113 90 198 4.3 4.3 0.00 0.01 0.01 47 1008.1
20260509222608 91 171 3.5 4.3 0.00 0.01 0.01 50 1007.9
20260509222104 91 234 0.9 0.9 0.00 0.01 0.01 47 1008.0
20260509221600 91 175 4.3 5.2 0.00 0.01 0.01 49 1008.1
20260509221056 91 230 0.9 0.9 0.00 0.01 0.01 48 1008.0
20260509220552 91 187 2.6 2.6 0.00 0.01 0.01 49 1008.3
20260509220049 91 189 3.5 4.3 0.00 0.01 0.01 47 1008.1
20260509215544 90 229 1.7 1.7 0.00 0.01 0.01 50 1008.0
20260509215042 90 219 4.3 5.2 0.00 0.01 0.01 49 1008.1
20260509214539 91 187 4.3 5.2 0.00 0.01 0.01 50 1008.2
20260509214036 92 333 0.9 0.9 0.00 0.01 0.01 50 1008.2
20260509213532 92 291 0.9 0.9 0.00 0.01 0.01 48 1008.2
20260509213029 92 315 1.7 1.7 0.00 0.01 0.01 48 1008.2
20260509212526 93 323 0.9 0.9 0.00 0.01 0.01 48 1008.2
20260509212023 92 342 0.0 0.0 0.00 0.01 0.01 48 1008.1
20260509211518 92 338 0.9 0.9 0.00 0.01 0.01 48 1008.0
20260509211016 92 103 2.6 1.7 0.00 0.01 0.01 48 1008.0
20260509210512 92 210 1.7 1.7 0.00 0.01 0.01 50 1008.2
20260509210008 92 258 2.6 1.7 0.00 0.01 0.01 48 1008.2
20260509205503 91 321 2.6 1.7 0.00 0.01 0.01 49 1008.3
20260509204958 92 69 1.7 1.7 0.00 0.01 0.01 50 1008.3
20260509204455 91 319 0.9 1.7 0.00 0.01 0.01 52 1008.2
20260509203951 91 276 2.6 2.6 0.00 0.01 0.01 50 1008.3
20260509203447 90 207 2.6 2.6 0.00 0.01 0.01 51 1008.4
20260509202945 90 326 1.7 1.7 0.00 0.01 0.01 52 1008.6
20260509202441 91 282 3.5 4.3 0.00 0.01 0.01 51 1008.7
20260509201936 91 316 2.6 2.6 0.00 0.01 0.01 53 1008.7
20260509201431 91 318 1.7 1.7 0.00 0.01 0.01 53 1008.5
20260509200929 89 291 0.0 0.0 0.00 0.01 0.01 56 1008.6
20260509200428 90 92 2.6 4.3 0.00 0.01 0.01 54 1008.7
20260509195926 90 41 1.7 1.7 0.00 0.01 0.01 54 1008.8
20260509195421 89 327 1.7 0.9 0.00 0.01 0.01 55 1008.9
20260509194920 89 299 1.7 1.7 0.00 0.01 0.01 58 1008.9
20260509194417 89 84 3.5 4.3 0.00 0.01 0.01 55 1008.9
20260509193914 88 77 2.6 2.6 0.00 0.01 0.01 56 1009.0
20260509193413 87 100 6.1 6.1 0.00 0.01 0.01 57 1008.9
20260509192909 88 119 4.3 5.2 0.00 0.01 0.01 58 1009.2
20260509192406 89 311 0.9 1.7 0.00 0.01 0.01 56 1009.2
20260509191901 88 267 0.9 1.7 0.00 0.01 0.01 57 1009.2
20260509191357 88 282 0.9 0.9 0.00 0.01 0.01 56 1009.1
20260509190853 87 238 1.7 1.7 0.00 0.01 0.01 58 1009.4
20260509190350 88 248 3.5 4.3 0.00 0.01 0.01 57 1009.4
20260509185848 87 24 1.7 1.7 0.00 0.01 0.01 58 1009.6
20260509185344 88 278 0.9 0.9 0.00 0.01 0.01 59 1009.5
20260509184842 88 296 1.7 2.6 0.00 0.01 0.01 58 1009.5
20260509184339 88 301 2.6 2.6 0.00 0.01 0.01 59 1009.5
20260509183835 88 308 1.7 1.7 0.00 0.01 0.01 59 1009.4
20260509183330 87 60 0.9 0.9 0.00 0.01 0.01 57 1009.5
20260509182827 87 70 1.7 1.7 0.00 0.01 0.01 56 1009.7
20260509182324 87 4 0.9 0.9 0.00 0.01 0.01 61 1009.7
20260509181821 87 336 0.9 0.9 0.00 0.01 0.01 59 1009.7
20260509181318 87 316 0.9 0.9 0.00 0.01 0.01 62 1009.8
20260509180815 87 293 3.5 2.6 0.00 0.01 0.01 61 1009.8
20260509180312 87 295 2.6 2.6 0.00 0.01 0.01 60 1010.1
20260509175808 87 278 3.5 4.3 0.00 0.01 0.01 59 1010.1
20260509175306 86 325 1.7 1.7 0.00 0.01 0.01 61 1010.2
20260509174801 86 286 1.7 0.9 0.00 0.01 0.01 60 1010.2
20260509174256 86 315 1.7 1.7 0.00 0.01 0.01 60 1010.3
20260509173752 86 314 2.6 2.6 0.00 0.01 0.01 62 1010.2
20260509173248 86 319 2.6 4.3 0.00 0.01 0.01 63 1010.7
20260509172744 86 299 0.9 0.9 0.00 0.01 0.01 66 1010.4
20260509172241 85 330 1.7 1.7 0.00 0.01 0.01 65 1010.3
20260509171736 84 317 1.7 1.7 0.00 0.01 0.01 67 1010.5
20260509171233 85 303 4.3 5.2 0.00 0.01 0.01 66 1010.4
20260509170730 85 308 2.6 1.7 0.00 0.01 0.01 67 1010.6
20260509170226 85 285 0.9 0.9 0.00 0.01 0.01 69 1010.5
20260509165724 84 337 0.9 1.7 0.00 0.01 0.01 71 1010.3
20260509165220 84 289 0.0 0.0 0.00 0.01 0.01 75 1010.3
20260509164716 84 308 1.7 2.6 0.00 0.01 0.01 73 1010.1
20260509164212 83 343 3.5 4.3 0.00 0.01 0.01 74 1010.3
20260509163709 82 353 0.9 0.9 0.00 0.01 0.01 78 1010.3
20260509163206 81 85 1.7 4.3 0.00 0.01 0.01 79 1010.1
20260509162703 81 36 1.7 2.6 0.00 0.01 0.01 79 1010.6
20260509162159 80 324 0.9 0.9 0.00 0.01 0.01 80 1010.3
20260509161654 80 330 1.7 2.6 0.00 0.01 0.01 79 1010.5
20260509161150 80 355 0.9 0.9 0.00 0.01 0.01 81 1010.3
20260509160646 80 335 0.9 0.9 0.00 0.01 0.01 82 1010.8
20260509160141 79 316 1.7 2.6 0.00 0.01 0.01 83 1010.4
20260509155638 79 296 1.7 1.7 0.00 0.01 0.01 84 1010.6
20260509155134 79 326 0.9 0.9 0.00 0.01 0.01 85 1010.6
20260509154630 78 358 0.9 0.9 0.00 0.01 0.01 87 1010.6
20260509154127 78 278 0.9 0.9 0.00 0.01 0.01 88 1010.5
20260509153625 77 193 0.9 0.9 0.00 0.01 0.01 88 1010.5